Torna al catalogo

STARLINK-33802

AttivoComunicazioniVLEO
NORAD 64392·PAYLOAD·🇺🇸 United States

Lanciato Jun 13, 2025 da Cape Canaveral Space Force Station

Loading…

Prossimi Passaggi (prossime 24 ore)

TLE

AggiornatoSource: CelesTrak SupGP

Epoca: Sep 15, 2026, 03:01 UTC

1 64392C 25127Y   26258.12618056 -.00045355  00000+0 -16431-2 0  2581
2 64392  43.0007 190.2784 0001062 276.4304 134.8283 15.27594805    12

Traccia STARLINK-33802 in tempo reale con AllMySat

Download on the App Store